Portada
METAR-TAF:

METAR-TAF

Aeroports :

Pembrey, Gal·les

latitud: 51-43N, longitud: 004-22W, altitud: 3 m

Observació

L'informe es va fer fa 1 hora i 1 minuts, a les 06:50 UTC
Vent 12 kt del Nord
Temperatura 5°C
Humitat 81%
Pressió 1008 hPa
Visibilitat 10 km o més

METAR: EGOP 150650Z AUTO 01012KT 9999 // NCD 05/02 Q1008

Hora: 07:51 (07:51 UTC)


TAF: manca

Observacions i pronòstics meteorològics de més de 4000 aeroports (METAR i TAF).

Les estacions disponibles són els punts grocs i vermells al mapa.

Posi el ratolí al punt desitjat per veure el nom de l'estació.

Feu clic per veure les observacions i els pronòstics meteorològics.

Per canviar el mapa: feu clic els botons verds amb una creu de color negre per apropar; al botó verd amb un guió per allunyar la imatge; o en les fletxes verdes per a mapes adjacents.


METAR-TAF: